Location: Argonnex
(45.9500°N, 6.1333°E)
Time: 17:51:36
(UTC+00:00)

Cosmos 1408 - Pass Details

Date: 28 January 2023
Orbit: 432 x 463 km, 82.6° (Epoch: 29 March)

Event Time Altitude Azimuth Distance (km) Brightness Sun altitude
Rises 17:55:11 0° 173° (S) 2,394 6.2 -14.1°
Reaches altitude 10° 17:57:15 10° 166° (SSE) 1,534 5.1 -14.4°
Maximum altitude 18:00:26 43° 94° (E) 626 2.6 -15.0°
Enters shadow 18:02:07 23° 35° (NE) 972 3.7 -15.2°
